Flag for Norway Weather past 2 weeks in Drammen, Norway

Now
N/A

Scattered clouds.


Feels Like: N/A
Forecast: 44 / 64 °F
Wind: 10 mph from East

Location: Oslo / Fornebu

Current Time: Sep 16, 2014 at 8:07:30 PM

Latest Report: Sep 16, 2014 at 7:20 PM


Visibility: N/A

Pressure: N/A

Humidity: N/A

Dew point: N/A

Location of DrammenLocation

Historic Weather in Drammen — Graph

°F

Drammen temperature yesterday

Maximum temperature yesterday: 61 °F (at 9:50 AM)
Minimum temperature yesterday: 55 °F (at 12:20 AM)
Average temperature yesterday: 56 °F

Past Weeks' High & Low Weather Summary

 TemperatureHumidityPressure
High61 °F (Sep 7, 4:20 PM)100% (Sep 5, 11:50 AM)30.51 "Hg (Sep 5, 11:50 AM)
Low54 °F (Sep 5, 2:50 PM)77% (Sep 9, 12:50 PM)29.77 "Hg (Sep 7, 6:50 AM)
Average56 °F92%30.15 "Hg
* Reported Sep 1 6:20 PM — Sep 16 6:20 PM, Drammen, Weather by CustomWeather, © 2014

Note: Actual official high and low records may vary slightly from our data, if they occured in-between our weather recording intervals... More about our weather records

Advertising

Drammen weather history for previous 24 hours

 ConditionsComfort  
Time TempWeatherWind HumidityBarometerVisibility
6:20 PM
Sep 16
N/APartly sunny.9 mphN/AN/AN/A
5:50 PMN/APartly sunny.9 mphN/AN/AN/A
5:20 PMN/APartly sunny.9 mphN/AN/AN/A
4:50 PMN/ABroken clouds.9 mphN/AN/AN/A
4:20 PMN/APartly sunny.10 mphN/AN/AN/A
3:50 PMN/APartly sunny.9 mphN/AN/AN/A
3:20 PMN/APartly sunny.9 mphN/AN/AN/A
2:50 PMN/A7 mphN/AN/AN/A
2:20 PMN/ABroken clouds.8 mphN/AN/AN/A
1:50 PMN/APartly sunny.9 mphN/AN/AN/A
1:20 PMN/AScattered clouds.9 mphN/AN/AN/A
12:50 PMN/APartly sunny.10 mphN/AN/AN/A
12:20 PMN/A10 mphN/AN/AN/A
11:50 AMN/A10 mphN/AN/AN/A
11:20 AMN/A10 mphN/AN/AN/A
10:50 AMN/A12 mphN/AN/AN/A
10:20 AMN/A12 mphN/AN/AN/A
9:50 AMN/APassing clouds.12 mphN/AN/AN/A
9:20 AMN/APartly sunny.10 mphN/AN/AN/A
8:50 AMN/ALow clouds.10 mphN/AN/AN/A
8:20 AMN/APartly sunny.12 mphN/AN/AN/A
7:50 AMN/A9 mphN/AN/AN/A
7:20 AMN/A12 mphN/AN/AN/A
6:20 AM54 °FDrizzle. Fog.12 mph100%30.30 "Hg0 mi
5:50 AM54 °FLight rain. Fog.12 mph100%30.30 "Hg0 mi
5:20 AM54 °FLight rain. Fog.13 mph100%30.30 "Hg0 mi
4:50 AM54 °FLight rain. Fog.13 mph100%30.30 "Hg1 mi
4:20 AM54 °FSprinkles. Fog.13 mph100%30.30 "Hg0 mi
3:50 AM54 °FSprinkles. Fog.12 mph100%30.30 "Hg0 mi
3:20 AM54 °FFog.13 mph100%30.30 "Hg1 mi
2:50 AM55 °FPassing clouds.13 mph94%30.30 "HgN/A
2:20 AM55 °FPassing clouds.14 mph100%30.30 "HgN/A
1:50 AM57 °FPassing clouds.14 mph94%30.30 "HgN/A
1:20 AM57 °FPassing clouds.14 mph94%30.33 "HgN/A
12:50 AM57 °FPassing clouds.13 mph94%30.33 "HgN/A
12:20 AM57 °FPassing clouds.14 mph94%30.33 "HgN/A
11:50 PM
Sep 15
57 °FCool.N/A94%30.33 "HgN/A
11:20 PM57 °FCool.N/A94%30.33 "HgN/A
10:50 PM57 °FCool.N/A94%30.33 "HgN/A
10:20 PM55 °FCool.N/A94%30.33 "HgN/A
9:50 PM55 °FCool.N/A100%30.33 "HgN/A
9:20 PM55 °FCool.N/A100%30.33 "HgN/A
8:50 PM55 °FCool.9 mph94%30.33 "HgN/A
8:20 PM55 °FCool.8 mph94%30.33 "HgN/A
Weather by CustomWeather, © 2014

See weather overviewHow to use our weather pages